Simultaneous Nadir Overpasses (SNOs) Predictions

Prediction of SNOs between AQUA and NPP Satellite Orbit:

Table of predicted SNOs for the next 14.0 days since TLE Epoch: 1/26/2017
Index Date (AQUA) Time (AQUA) Lat,Lon (AQUA) SZA (AQUA ) Date (NPP) Time (NPP) Lat,Lon (NPP) SZA (NPP ) Distance(km) Time Diff (sec)
1 01/27/2017 05:32:13 -75.47, 154.48 63.58 01/27/2017 05:31:21 -75.47, 154.49 63.54 0.10 52
2 01/27/2017 06:21:16 76.58, -34.40 115.15 01/27/2017 06:21:41 76.59, -34.38 115.13 0.42 25
3 01/29/2017 21:48:36 -75.84, -88.57 64.66 01/29/2017 21:48:07 -75.83, -88.57 64.64 0.04 29
4 01/29/2017 22:37:40 76.89, 82.55 114.13 01/29/2017 22:38:28 76.89, 82.58 114.08 0.64 48
5 02/01/2017 14:04:58 -76.24, 28.57 65.83 02/01/2017 14:04:52 -76.24, 28.59 65.83 0.66 6
6 02/01/2017 14:54:04 77.18,-160.47 113.06 02/01/2017 14:55:15 77.19,-160.42 112.99 1.62 71
7 02/04/2017 05:32:12 75.64, -25.02 114.11 02/04/2017 05:31:12 75.65, -24.93 114.14 2.69 60
8 02/04/2017 06:21:19 -76.63, 145.75 67.04 02/04/2017 06:21:36 -76.64, 145.83 67.07 2.13 17
9 02/06/2017 21:48:41 75.69, 91.00 113.27 02/06/2017 21:48:05 75.68, 90.96 113.31 1.14 36
10 02/06/2017 22:37:47 -76.72, -98.04 67.94 02/06/2017 22:38:28 -76.72, -98.09 67.96 1.56 41
11 02/09/2017 14:04:59 76.26,-151.34 111.78 02/09/2017 14:04:46 76.27,-151.29 111.78 1.60 13




NCC Satellite Simultaneous Nadir Overpasses (SNOs) Prediction Service
